カタログに戻る

COSMOS 397 DEB

運用中LEO
NORAD 5011·DEBRIS·🇷🇺 Russia

打ち上げ Feb 25, 1971 から Baikonur Cosmodrome

Loading…

次のパス

TLE

Source: Space-Track
1 05011U 71015E   26228.43706403  .00001676  00000-0  29744-3 0  9997
2 05011  65.6689 358.0208 0388593 340.7175  17.9542 14.31060939729493

AllMySatでCOSMOS 397 DEBをリアルタイム追跡

Download on the App Store